Regional Weather Roundup
Issued by NWS

Home | Current Version | Previous Version | Graphics & Text | Print | Product List | Glossary On
Versions: 1 2 3 4 5 6 7 8 9 10 11 12 13 14 15 16 17 18 19 20 21 22 23 24 25 26 27 28 29 30 31 32 33 34 35 36 37 38 39 40 41 42 43 44 45 46 47 48 49 50
000
ASUS43 KBIS 261001
RWRND

NORTH DAKOTA REGIONAL WEATHER ROUNDUP
NATIONAL WEATHER SERVICE BISMARCK ND
500 AM CDT TUE MAY 26 2015

NOTE: "FAIR" INDICATES FEW OR NO CLOUDS BELOW 12,000 FEET WITH NO
SIGNIFICANT WEATHER AND/OR OBSTRUCTIONS TO VISIBILITY.


NDZ001>003-009>011-017-261100-
NORTHWEST NORTH DAKOTA

CITY           SKY/WX    TMP DP  RH WIND       PRES   REMARKS
WILLISTON      CLEAR     49  46  90 CALM      29.92S
MINOT          CLEAR     57  46  66 W12       29.85F
MINOT AFB      PTCLDY    55  53  92 NW10      29.85S
$$

NDZ018>021-031>035-040>046-261100-
SOUTHWEST NORTH DAKOTA

CITY           SKY/WX    TMP DP  RH WIND       PRES   REMARKS
BISMARCK       CLEAR     53  50  89 W7        29.90S
DICKINSON      CLEAR     46  44  93 W6        29.93R
GARRISON         N/A     53  47  79 W7        29.89S
HETTINGER ARPT FOG       41  40  96 CALM      29.97R VSB 1/2
$$

NDZ004>008-012>016-024-026-027-054-261100-
NORTHEAST NORTH DAKOTA

CITY           SKY/WX    TMP DP  RH WIND       PRES   REMARKS
GRAND FORKS    CLEAR     53  49  86 S8        29.80S
GRND FRKS AFB  CLEAR     55  51  87 SW8       29.79F
DEVILS LAKE    PTCLDY    59  48  67 W12       29.79F
$$

NDZ022-023-025-028>030-036>039-047>053-261100-
SOUTHEAST NORTH DAKOTA

CITY           SKY/WX    TMP DP  RH WIND       PRES   REMARKS
FARGO          PTCLDY    52  48  86 S7        29.86R
JAMESTOWN      PTCLDY    51  49  92 S5        29.83S
$$



USA.gov is the U.S. government's official web portal to all federal, state and local government web resources and services.